NBT65C ENGM-ESSA

Flight info

Callsign NBT65C
Flight time 0h 37m
Altitude 27000
Route MASEV Z183 LEGPO DCT ELTOK
Aircraft B789/H-SDE1E2E3FGHIJ2J3J4J5M1RWXY/LB1D1

Departure

Time 2026-05-06 18:59
Airport Oslo-Gardermoen International Airport (ENGM)

Arrival

Time 2026-05-06 19:36
Airport Stockholm-Arlanda Airport (ESSA)
Time Latitude Longitude Altitude Speed Heading
2026-05-06 18:26 60.19357 11.11072 690 ft 0 kts 196°
2026-05-06 18:50 60.19364 11.11077 682 ft 2 kts 194°
2026-05-06 18:50 60.19380 11.11084 687 ft 2 kts 191°
2026-05-06 18:51 60.19397 11.11089 683 ft 2 kts 186°
2026-05-06 18:51 60.19413 11.11090 681 ft 2 kts 174°
2026-05-06 18:51 60.19429 11.11082 680 ft 2 kts 153°
2026-05-06 18:51 60.19442 11.11061 680 ft 2 kts 120°
2026-05-06 18:52 60.19446 11.11040 680 ft 1 kts 109°
2026-05-06 18:52 60.19447 11.11037 680 ft 0 kts 109°
2026-05-06 18:54 60.19447 11.11038 689 ft 0 kts 109°
2026-05-06 18:54 60.19442 11.11065 681 ft 5 kts 108°
2026-05-06 18:54 60.19426 11.11179 687 ft 11 kts 105°
2026-05-06 18:55 60.19433 11.11282 686 ft 5 kts 40°
2026-05-06 18:55 60.19498 11.11329 683 ft 16 kts 14°
2026-05-06 18:55 60.19632 11.11404 684 ft 23 kts 16°
2026-05-06 18:55 60.19805 11.11503 686 ft 26 kts 16°
2026-05-06 18:56 60.19977 11.11602 687 ft 25 kts 16°
2026-05-06 18:56 60.20106 11.11677 688 ft 12 kts 16°
2026-05-06 18:56 60.20166 11.11744 684 ft 8 kts 61°
2026-05-06 18:56 60.20164 11.11872 689 ft 11 kts 105°
2026-05-06 18:57 60.20143 11.12021 689 ft 11 kts 106°
2026-05-06 18:57 60.20118 11.12184 689 ft 12 kts 115°
2026-05-06 18:57 60.20062 11.12218 689 ft 10 kts 193°
2026-05-06 18:57 60.20046 11.12208 690 ft 0 kts 197°
2026-05-06 18:58 60.20045 11.12208 690 ft 1 kts 197°
2026-05-06 18:58 60.19965 11.12159 690 ft 35 kts 197°
2026-05-06 18:58 60.19496 11.11886 682 ft 105 kts 195°
2026-05-06 18:58 60.18587 11.11361 686 ft 165 kts 196°
2026-05-06 18:59 60.17390 11.10688 1203 ft 178 kts 196°
2026-05-06 18:59 60.16196 11.09978 1957 ft 181 kts 199°
2026-05-06 18:59 60.14985 11.09277 2652 ft 181 kts 198°
2026-05-06 18:59 60.13736 11.08772 3092 ft 189 kts 181°
2026-05-06 19:00 60.12561 11.09905 3567 ft 191 kts 141°
2026-05-06 19:00 60.11636 11.11823 4115 ft 191 kts 134°
2026-05-06 19:00 60.11046 11.13144 4466 ft 192 kts 133°
2026-05-06 19:00 60.10135 11.15120 4977 ft 194 kts 135°
2026-05-06 19:01 60.09208 11.17082 5474 ft 195 kts 135°
2026-05-06 19:01 60.08264 11.19070 5848 ft 204 kts 135°
2026-05-06 19:01 60.07231 11.21249 5871 ft 227 kts 135°
2026-05-06 19:01 60.06096 11.23633 5872 ft 248 kts 135°
2026-05-06 19:02 60.04836 11.26261 5899 ft 273 kts 135°
2026-05-06 19:02 60.03547 11.29051 6453 ft 273 kts 128°
2026-05-06 19:02 60.02946 11.32625 6927 ft 276 kts 90°
2026-05-06 19:02 60.03257 11.36427 7343 ft 280 kts 75°
2026-05-06 19:03 60.03797 11.40190 7801 ft 282 kts 73°
2026-05-06 19:03 60.04329 11.43989 8253 ft 285 kts 76°
2026-05-06 19:03 60.04812 11.47853 8690 ft 287 kts 77°
2026-05-06 19:03 60.05292 11.51752 9105 ft 290 kts 77°
2026-05-06 19:04 60.05790 11.55677 9502 ft 292 kts 76°
2026-05-06 19:04 60.06296 11.59635 9911 ft 294 kts 77°
2026-05-06 19:04 60.06803 11.63652 10053 ft 304 kts 77°
2026-05-06 19:04 60.07330 11.67854 10267 ft 317 kts 77°
2026-05-06 19:05 60.07867 11.72132 10995 ft 331 kts 77°
2026-05-06 19:05 60.08450 11.76795 11354 ft 357 kts 77°
2026-05-06 19:05 60.09059 11.81672 12242 ft 364 kts 77°
2026-05-06 19:05 60.09680 11.86664 13091 ft 374 kts 77°
2026-05-06 19:06 60.10314 11.91788 13926 ft 383 kts 77°
2026-05-06 19:06 60.10959 11.97014 14713 ft 390 kts 77°
2026-05-06 19:06 60.11615 12.02345 15519 ft 397 kts 77°
2026-05-06 19:06 60.12279 12.07765 16300 ft 404 kts 77°
2026-05-06 19:07 60.12952 12.13282 17062 ft 411 kts 77°
2026-05-06 19:07 60.13634 12.18897 17821 ft 418 kts 77°
2026-05-06 19:07 60.14327 12.24616 18513 ft 425 kts 77°
2026-05-06 19:07 60.15026 12.30411 19160 ft 430 kts 77°
2026-05-06 19:08 60.15732 12.36285 19825 ft 436 kts 77°
2026-05-06 19:08 60.16445 12.42245 20460 ft 441 kts 77°
2026-05-06 19:08 60.17164 12.48285 21090 ft 447 kts 77°
2026-05-06 19:08 60.17568 12.54475 21662 ft 450 kts 92°
2026-05-06 19:09 60.17334 12.60659 22220 ft 452 kts 101°
2026-05-06 19:09 60.16947 12.66959 22817 ft 456 kts 101°
2026-05-06 19:09 60.16539 12.73308 23361 ft 461 kts 101°
2026-05-06 19:09 60.16125 12.79741 23884 ft 465 kts 101°
2026-05-06 19:10 60.15718 12.86177 24578 ft 463 kts 101°
2026-05-06 19:10 60.15309 12.92586 25215 ft 462 kts 102°
2026-05-06 19:10 60.14891 12.98974 25847 ft 462 kts 102°
2026-05-06 19:10 60.14470 13.05355 26485 ft 461 kts 103°
2026-05-06 19:11 60.14048 13.11739 26938 ft 465 kts 103°
2026-05-06 19:11 60.13617 13.18210 26927 ft 467 kts 103°
2026-05-06 19:11 60.13192 13.24625 26930 ft 459 kts 103°
2026-05-06 19:11 60.12766 13.30951 26927 ft 458 kts 103°
2026-05-06 19:12 60.12328 13.37304 26908 ft 464 kts 103°
2026-05-06 19:12 60.11876 13.43821 26933 ft 479 kts 103°
2026-05-06 19:12 60.11413 13.50543 26925 ft 492 kts 103°
2026-05-06 19:12 60.10942 13.57392 26936 ft 502 kts 103°
2026-05-06 19:13 60.10448 13.64421 26923 ft 515 kts 103°
2026-05-06 19:13 60.09937 13.71613 26918 ft 527 kts 103°
2026-05-06 19:13 60.09415 13.78956 26934 ft 538 kts 103°
2026-05-06 19:13 60.08882 13.86418 26936 ft 543 kts 103°
2026-05-06 19:14 60.08343 13.93904 26921 ft 544 kts 103°
2026-05-06 19:14 60.07801 14.01311 26946 ft 544 kts 103°
2026-05-06 19:14 60.07248 14.08801 26940 ft 544 kts 103°
2026-05-06 19:14 60.06693 14.16288 26952 ft 544 kts 103°
2026-05-06 19:15 60.06134 14.23792 26953 ft 544 kts 103°
2026-05-06 19:15 60.05569 14.31279 26960 ft 544 kts 103°
2026-05-06 19:15 60.04998 14.38781 26955 ft 547 kts 103°
2026-05-06 19:15 60.04416 14.46359 26964 ft 556 kts 103°
2026-05-06 19:16 60.03824 14.54035 26958 ft 558 kts 103°
2026-05-06 19:16 60.03230 14.61714 26954 ft 558 kts 103°
2026-05-06 19:16 60.02630 14.69370 26958 ft 559 kts 103°
2026-05-06 19:16 60.02019 14.77075 26958 ft 559 kts 104°
2026-05-06 19:17 60.01408 14.84748 26956 ft 559 kts 104°
2026-05-06 19:17 60.00807 14.92309 26942 ft 539 kts 104°
2026-05-06 19:17 60.00229 14.99540 26939 ft 516 kts 104°
2026-05-06 19:17 59.99657 15.06518 26937 ft 504 kts 105°
2026-05-06 19:18 59.99083 15.13400 26926 ft 497 kts 105°
2026-05-06 19:18 59.98514 15.20268 26653 ft 508 kts 105°
2026-05-06 19:18 59.97932 15.27280 26027 ft 512 kts 104°
2026-05-06 19:18 59.97358 15.34248 25415 ft 504 kts 104°
2026-05-06 19:19 59.96790 15.41026 24808 ft 497 kts 104°
2026-05-06 19:19 59.96213 15.47777 24224 ft 490 kts 104°
2026-05-06 19:19 59.95642 15.54450 23630 ft 487 kts 104°
2026-05-06 19:19 59.95074 15.61086 22988 ft 484 kts 104°
2026-05-06 19:20 59.94507 15.67680 22397 ft 479 kts 104°
2026-05-06 19:20 59.93941 15.74192 21836 ft 474 kts 103°
2026-05-06 19:20 59.93379 15.80621 21257 ft 465 kts 103°
2026-05-06 19:20 59.92825 15.86934 20716 ft 459 kts 103°
2026-05-06 19:21 59.92273 15.93165 20166 ft 455 kts 103°
2026-05-06 19:21 59.91721 15.99369 19638 ft 453 kts 103°
2026-05-06 19:21 59.91173 16.05511 19081 ft 447 kts 103°
2026-05-06 19:21 59.90632 16.11554 18567 ft 439 kts 102°
2026-05-06 19:22 59.90093 16.17512 18011 ft 435 kts 102°
2026-05-06 19:22 59.89557 16.23410 17498 ft 432 kts 102°
2026-05-06 19:22 59.89022 16.29277 16987 ft 429 kts 102°
2026-05-06 19:22 59.88487 16.35112 16485 ft 425 kts 102°
2026-05-06 19:23 59.87967 16.40757 16004 ft 416 kts 102°
2026-05-06 19:23 59.87443 16.46399 15511 ft 414 kts 102°
2026-05-06 19:23 59.86915 16.52052 15006 ft 414 kts 102°
2026-05-06 19:23 59.86392 16.57659 14518 ft 407 kts 102°
2026-05-06 19:24 59.85876 16.63156 14037 ft 402 kts 102°
2026-05-06 19:24 59.85360 16.68614 13546 ft 402 kts 102°
2026-05-06 19:24 59.84842 16.74055 13068 ft 399 kts 102°
2026-05-06 19:24 59.84308 16.79483 12312 ft 400 kts 104°
2026-05-06 19:25 59.83669 16.84672 11336 ft 370 kts 106°
2026-05-06 19:25 59.83055 16.89383 10604 ft 337 kts 105°
2026-05-06 19:25 59.82541 16.93730 10239 ft 303 kts 104°
2026-05-06 19:25 59.82081 16.97723 10124 ft 302 kts 104°
2026-05-06 19:26 59.81591 17.01802 9873 ft 300 kts 104°
2026-05-06 19:26 59.81108 17.05790 9573 ft 297 kts 104°
2026-05-06 19:26 59.80627 17.09774 9296 ft 297 kts 104°
2026-05-06 19:26 59.80147 17.13755 9017 ft 295 kts 104°
2026-05-06 19:27 59.79675 17.17660 8735 ft 288 kts 104°
2026-05-06 19:27 59.79210 17.21485 8460 ft 289 kts 104°
2026-05-06 19:27 59.78735 17.25375 8170 ft 288 kts 104°
2026-05-06 19:27 59.78271 17.29182 7894 ft 282 kts 104°
2026-05-06 19:28 59.78154 17.30136 7817 ft 282 kts 104°
2026-05-06 19:28 59.77690 17.33922 7551 ft 282 kts 104°
2026-05-06 19:28 59.77226 17.37700 7273 ft 281 kts 104°
2026-05-06 19:28 59.76768 17.41418 6993 ft 276 kts 104°
2026-05-06 19:29 59.76308 17.45146 6718 ft 278 kts 104°
2026-05-06 19:29 59.75854 17.48815 6446 ft 273 kts 104°
2026-05-06 19:29 59.75399 17.52480 6165 ft 274 kts 104°
2026-05-06 19:29 59.74952 17.56086 5878 ft 265 kts 103°
2026-05-06 19:30 59.74865 17.59606 5614 ft 250 kts 79°
2026-05-06 19:30 59.75469 17.62746 5329 ft 241 kts 65°
2026-05-06 19:30 59.76183 17.65675 5034 ft 231 kts 64°
2026-05-06 19:30 59.76879 17.68484 4720 ft 223 kts 64°
2026-05-06 19:31 59.77541 17.71218 4420 ft 216 kts 66°
2026-05-06 19:31 59.77964 17.73983 4119 ft 201 kts 77°
2026-05-06 19:31 59.78707 17.78879 3652 ft 175 kts 76°
2026-05-06 19:32 59.79040 17.81178 3408 ft 170 kts 78°
2026-05-06 19:32 59.79177 17.83455 3189 ft 167 kts 91°
2026-05-06 19:32 59.79076 17.85726 2971 ft 163 kts 104°
2026-05-06 19:32 59.78749 17.87885 2752 ft 160 kts 115°
2026-05-06 19:33 59.78226 17.89819 2547 ft 160 kts 127°
2026-05-06 19:33 59.77505 17.91545 2326 ft 163 kts 138°
2026-05-06 19:33 59.76629 17.92942 2126 ft 161 kts 149°
2026-05-06 19:33 59.75642 17.93956 1912 ft 160 kts 160°
2026-05-06 19:34 59.74594 17.94554 1700 ft 156 kts 170°
2026-05-06 19:34 59.73563 17.94738 1492 ft 146 kts 179°
2026-05-06 19:34 59.72554 17.94553 1301 ft 145 kts 189°
2026-05-06 19:34 59.71565 17.94161 1111 ft 145 kts 189°
2026-05-06 19:35 59.70571 17.93803 915 ft 146 kts 189°
2026-05-06 19:35 59.69562 17.93436 707 ft 149 kts 187°
2026-05-06 19:35 59.68544 17.93060 521 ft 148 kts 187°
2026-05-06 19:35 59.67532 17.92688 333 ft 148 kts 187°
2026-05-06 19:36 59.66531 17.92326 152 ft 146 kts 187°
2026-05-06 19:36 59.65656 17.92021 111 ft 109 kts 190°
2026-05-06 19:36 59.64987 17.91778 110 ft 83 kts 189°
2026-05-06 19:36 59.64632 17.91729 112 ft 28 kts 166°
2026-05-06 19:37 59.64497 17.91817 112 ft 11 kts 158°
2026-05-06 19:37 59.64480 17.91835 112 ft 0 kts 145°
2026-05-06 19:37 59.64470 17.91860 115 ft 4 kts 119°
2026-05-06 19:37 59.64470 17.91904 115 ft 6 kts 74°
2026-05-06 19:38 59.64611 17.92006 115 ft 27 kts 11°
2026-05-06 19:38 59.64819 17.92081 111 ft 32 kts 11°
2026-05-06 19:38 59.65038 17.92160 110 ft 32 kts 10°
2026-05-06 19:38 59.65256 17.92239 110 ft 32 kts 11°
2026-05-06 19:39 59.65449 17.92375 109 ft 27 kts 44°
2026-05-06 19:39 59.65540 17.92682 110 ft 25 kts 76°
2026-05-06 19:39 59.65579 17.93011 111 ft 24 kts 75°
2026-05-06 19:39 59.65606 17.93243 112 ft 10 kts 91°
2026-05-06 19:40 59.65573 17.93315 114 ft 9 kts 155°
2026-05-06 19:40 59.65506 17.93343 116 ft 11 kts 176°
2026-05-06 19:40 59.65469 17.93347 113 ft 0 kts 166°
2026-05-06 19:40 59.65459 17.93368 117 ft 3 kts 120°
2026-05-06 19:41 59.65458 17.93438 117 ft 3 kts 77°
2026-05-06 19:41 59.65463 17.93475 116 ft 0 kts 76°